User: anonymous   Login
Location: Borkenes
(68.7830°N, 16.1830°E)
Time: 14:19:53
(UTC+01:00)
Language:

Tiros 1 - Orbit

View from above orbital plane
View from above orbital plane
View from above satellite
View from above satellite

Ground track
Ground track

The orbit data is extracted from the following two-line orbital elements,

1    29U 60002B   19348.83861414 -.00000141 +00000-0 +10064-4 0  9991
2    29 048.3796 104.5745 0024028 159.5148 200.6733 14.74333063191157
Epoch (UTC): 14 December 2019 20:07:36
Eccentricity: 0.0024028
inclination: 48.3796°
perigee height: 630 km
apogee height: 664 km
right ascension of ascending node: 104.5745°
argument of perigee: 159.5148°
revolutions per day: 14.74333063
mean anomaly at epoch: 200.6733°
orbit number at epoch: 19115

The dashed part of the orbit path shows where the satellite is in the earth's shadow,  

DLR